Time,TemperatureF,DewpointF,PressureIn,WindDirection,WindDirectionDegrees,WindSpeedMPH,WindSpeedGustMPH,Humidity,HourlyPrecipIn,Conditions,Clouds,dailyrainin,SoftwareType,DateUTC
2013-01-18 00:03:00,26.9,10.3,30.34,East,89,0.0,0.0,49,0.00,,SKC,0.00,VWS V14.01,2013-01-18 07:03:00,
2013-01-18 00:08:00,26.6,10.0,30.34,East,89,0.0,1.0,49,0.00,,SKC,0.00,VWS V14.01,2013-01-18 07:08:00,
2013-01-18 00:13:00,26.5,9.9,30.34,East,89,0.0,1.0,49,0.00,,SKC,0.00,VWS V14.01,2013-01-18 07:13:00,
2013-01-18 00:18:00,26.7,11.0,30.34,East,89,1.0,1.0,51,0.00,,SKC,0.00,VWS V14.01,2013-01-18 07:18:00,
2013-01-18 00:23:00,26.8,12.0,30.34,East,89,0.0,1.0,53,0.00,,SKC,0.00,VWS V14.01,2013-01-18 07:23:00,
2013-01-18 00:28:00,26.6,10.9,30.34,East,89,0.0,1.0,51,0.00,,SKC,0.00,VWS V14.01,2013-01-18 07:28:00,
2013-01-18 00:33:00,26.7,11.0,30.34,East,89,0.0,0.0,51,0.00,,SKC,0.00,VWS V14.01,2013-01-18 07:33:00,
2013-01-18 00:38:00,26.9,10.8,30.34,East,89,0.0,1.0,50,0.00,,SKC,0.00,VWS V14.01,2013-01-18 07:38:00,
2013-01-18 00:43:00,26.7,10.6,30.34,East,89,1.0,1.0,50,0.00,,SKC,0.00,VWS V14.01,2013-01-18 07:43:00,
2013-01-18 00:48:00,26.4,9.8,30.34,East,89,0.0,1.0,49,0.00,,SKC,0.00,VWS V14.01,2013-01-18 07:48:00,
2013-01-18 00:54:00,25.8,9.3,30.34,East,89,0.0,1.0,49,0.00,,SKC,0.00,VWS V14.01,2013-01-18 07:54:00,
2013-01-18 00:59:00,25.5,9.0,30.33,East,89,1.0,1.0,49,0.00,,SKC,0.00,VWS V14.01,2013-01-18 07:59:00,
2013-01-18 01:04:00,25.2,9.2,30.33,East,89,0.0,0.0,50,0.00,,SKC,0.00,VWS V14.01,2013-01-18 08:04:00,
2013-01-18 01:09:00,24.8,8.8,30.34,ENE,58,1.0,1.0,50,0.00,,SKC,0.00,VWS V14.01,2013-01-18 08:09:00,
2013-01-18 01:14:00,24.4,9.3,30.34,ENE,57,0.0,1.0,52,0.00,,SKC,0.00,VWS V14.01,2013-01-18 08:14:00,
2013-01-18 01:19:00,24.5,9.4,30.34,ENE,57,0.0,1.0,52,0.00,,SKC,0.00,VWS V14.01,2013-01-18 08:19:00,
2013-01-18 01:24:00,24.6,9.5,30.34,ENE,57,0.0,1.0,52,0.00,,SKC,0.00,VWS V14.01,2013-01-18 08:24:00,
2013-01-18 01:29:00,24.4,9.3,30.34,ENE,57,0.0,1.0,52,0.00,,SKC,0.00,VWS V14.01,2013-01-18 08:29:00,
2013-01-18 01:34:00,24.4,9.3,30.34,ENE,57,0.0,1.0,52,0.00,,SKC,0.00,VWS V14.01,2013-01-18 08:34:00,
2013-01-18 01:39:00,24.0,8.5,30.34,ENE,57,1.0,1.0,51,0.00,,SKC,0.00,VWS V14.01,2013-01-18 08:39:00,
2013-01-18 01:44:00,24.2,9.1,30.34,ENE,57,1.0,1.0,52,0.00,,SKC,0.00,VWS V14.01,2013-01-18 08:44:00,
2013-01-18 01:49:00,23.8,8.8,30.34,ENE,57,0.0,1.0,52,0.00,,SKC,0.00,VWS V14.01,2013-01-18 08:49:00,
2013-01-18 01:54:00,24.2,9.6,30.34,NE,46,1.0,1.0,53,0.00,,SKC,0.00,VWS V14.01,2013-01-18 08:54:00,
2013-01-18 01:59:00,24.6,9.9,30.34,NE,47,1.0,2.0,53,0.00,,SKC,0.00,VWS V14.01,2013-01-18 08:59:00,
2013-01-18 02:04:00,25.6,10.4,30.34,NE,44,0.0,2.0,52,0.00,,SKC,0.00,VWS V14.01,2013-01-18 09:04:00,
2013-01-18 02:10:00,25.7,10.1,30.34,East,93,1.0,2.0,51,0.00,,SKC,0.00,VWS V14.01,2013-01-18 09:10:00,
2013-01-18 02:15:00,25.8,9.7,30.34,ENE,63,1.0,2.0,50,0.00,,SKC,0.00,VWS V14.01,2013-01-18 09:15:00,
2013-01-18 02:20:00,25.6,9.6,30.34,ENE,64,0.0,2.0,50,0.00,,SKC,0.00,VWS V14.01,2013-01-18 09:20:00,
2013-01-18 02:25:00,25.1,9.5,30.34,ENE,64,0.0,2.0,51,0.00,,SKC,0.00,VWS V14.01,2013-01-18 09:25:00,
2013-01-18 02:30:00,24.9,9.8,30.34,ENE,67,2.0,2.0,52,0.00,,SKC,0.00,VWS V14.01,2013-01-18 09:30:00,
2013-01-18 02:35:00,25.3,9.7,30.34,ENE,71,1.0,2.0,51,0.00,,SKC,0.00,VWS V14.01,2013-01-18 09:35:00,
2013-01-18 02:40:00,25.5,9.9,30.34,ENE,71,1.0,2.0,51,0.00,,SKC,0.00,VWS V14.01,2013-01-18 09:40:00,
2013-01-18 02:45:00,25.7,10.1,30.34,ENE,69,2.0,2.0,51,0.00,,SKC,0.00,VWS V14.01,2013-01-18 09:45:00,
2013-01-18 02:50:00,25.8,10.2,30.34,NE,49,2.0,3.0,51,0.00,,SKC,0.00,VWS V14.01,2013-01-18 09:50:00,
2013-01-18 02:55:00,25.7,10.1,30.33,NE,56,0.0,3.0,51,0.00,,SKC,0.00,VWS V14.01,2013-01-18 09:55:00,
2013-01-18 03:00:00,25.5,9.9,30.33,NE,41,2.0,2.0,51,0.00,,SKC,0.00,VWS V14.01,2013-01-18 10:00:00,
2013-01-18 03:05:00,25.4,9.8,30.33,ENE,66,0.0,2.0,51,0.00,,SKC,0.00,VWS V14.01,2013-01-18 10:05:00,
2013-01-18 03:10:00,25.3,9.7,30.33,East,91,1.0,3.0,51,0.00,,SKC,0.00,VWS V14.01,2013-01-18 10:10:00,
2013-01-18 03:15:00,25.2,9.6,30.33,NE,41,2.0,3.0,51,0.00,,SKC,0.00,VWS V14.01,2013-01-18 10:15:00,
2013-01-18 03:20:00,25.0,9.4,30.33,ENE,58,2.0,3.0,51,0.00,,SKC,0.00,VWS V14.01,2013-01-18 10:20:00,
2013-01-18 03:25:00,24.9,9.4,30.33,ENE,61,1.0,3.0,51,0.00,,SKC,0.00,VWS V14.01,2013-01-18 10:25:00,
2013-01-18 03:30:00,24.6,9.1,30.33,NE,44,0.0,0.0,51,0.00,,SKC,0.00,VWS V14.01,2013-01-18 10:30:00,
2013-01-18 03:35:00,24.4,9.3,30.33,East,84,2.0,2.0,52,0.00,,SKC,0.00,VWS V14.01,2013-01-18 10:35:00,
2013-01-18 03:40:00,24.5,9.4,30.33,NE,44,1.0,2.0,52,0.00,,SKC,0.00,VWS V14.01,2013-01-18 10:40:00,
2013-01-18 03:46:00,24.4,9.3,30.33,NE,51,2.0,2.0,52,0.00,,SKC,0.00,VWS V14.01,2013-01-18 10:46:00,
2013-01-18 03:51:00,24.8,9.7,30.33,East,96,0.0,3.0,52,0.00,,SKC,0.00,VWS V14.01,2013-01-18 10:51:00,
2013-01-18 03:56:00,24.7,9.2,30.33,ENE,73,0.0,3.0,51,0.00,,SKC,0.00,VWS V14.01,2013-01-18 10:56:00,
2013-01-18 04:01:00,24.5,9.4,30.33,NNE,29,1.0,2.0,52,0.00,,SKC,0.00,VWS V14.01,2013-01-18 11:01:00,
2013-01-18 04:06:00,24.4,9.7,30.33,NE,46,0.0,2.0,53,0.00,,SKC,0.00,VWS V14.01,2013-01-18 11:06:00,
2013-01-18 04:11:00,24.4,9.7,30.33,NE,40,3.0,3.0,53,0.00,,SKC,0.00,VWS V14.01,2013-01-18 11:11:00,
2013-01-18 04:16:00,24.7,10.0,30.33,NE,56,2.0,4.0,53,0.00,,SKC,0.00,VWS V14.01,2013-01-18 11:16:00,
2013-01-18 04:21:00,25.0,9.9,30.33,ENE,76,2.0,4.0,52,0.00,,SKC,0.00,VWS V14.01,2013-01-18 11:21:00,
2013-01-18 04:26:00,25.3,10.1,30.32,NE,53,4.0,4.0,52,0.00,,SKC,0.00,VWS V14.01,2013-01-18 11:26:00,
2013-01-18 04:31:00,25.3,10.1,30.32,NE,44,1.0,2.0,52,0.00,,SKC,0.00,VWS V14.01,2013-01-18 11:31:00,
2013-01-18 04:36:00,25.2,10.1,30.32,NE,44,2.0,4.0,52,0.00,,SKC,0.00,VWS V14.01,2013-01-18 11:36:00,
2013-01-18 04:41:00,25.1,10.0,30.32,NE,41,2.0,4.0,52,0.00,,SKC,0.00,VWS V14.01,2013-01-18 11:41:00,
2013-01-18 04:46:00,24.9,9.8,30.32,NE,54,1.0,4.0,52,0.00,,SKC,0.00,VWS V14.01,2013-01-18 11:46:00,
2013-01-18 04:51:00,24.7,10.0,30.32,East,94,1.0,4.0,53,0.00,,SKC,0.00,VWS V14.01,2013-01-18 11:51:00,
2013-01-18 04:56:00,24.6,9.9,30.32,ENE,60,2.0,4.0,53,0.00,,SKC,0.00,VWS V14.01,2013-01-18 11:56:00,
2013-01-18 05:01:00,24.5,9.8,30.32,East,85,1.0,2.0,53,0.00,,SKC,0.00,VWS V14.01,2013-01-18 12:01:00,
2013-01-18 05:06:00,24.3,9.6,30.32,ESE,108,0.0,2.0,53,0.00,,SKC,0.00,VWS V14.01,2013-01-18 12:06:00,
2013-01-18 05:11:00,24.1,9.5,30.32,East,96,1.0,3.0,53,0.00,,SKC,0.00,VWS V14.01,2013-01-18 12:11:00,
2013-01-18 05:16:00,23.7,9.1,30.32,East,82,2.0,3.0,53,0.00,,SKC,0.00,VWS V14.01,2013-01-18 12:16:00,
2013-01-18 05:22:00,23.5,9.3,30.32,East,82,5.0,5.0,54,0.00,,SKC,0.00,VWS V14.01,2013-01-18 12:22:00,
2013-01-18 05:27:00,23.4,9.6,30.32,NE,39,2.0,5.0,55,0.00,,SKC,0.00,VWS V14.01,2013-01-18 12:27:00,
2013-01-18 05:32:00,23.2,9.4,30.32,ENE,68,2.0,2.0,55,0.00,,SKC,0.00,VWS V14.01,2013-01-18 12:32:00,
2013-01-18 05:37:00,23.1,9.4,30.32,ENE,64,3.0,3.0,55,0.00,,SKC,0.00,VWS V14.01,2013-01-18 12:37:00,
2013-01-18 05:42:00,22.9,9.2,30.32,East,85,2.0,3.0,55,0.00,,SKC,0.00,VWS V14.01,2013-01-18 12:42:00,
2013-01-18 05:47:00,22.7,9.0,30.33,NE,49,1.0,3.0,55,0.00,,SKC,0.00,VWS V14.01,2013-01-18 12:47:00,
2013-01-18 05:52:00,22.5,9.2,30.33,NE,56,1.0,3.0,56,0.00,,SKC,0.00,VWS V14.01,2013-01-18 12:52:00,
2013-01-18 05:57:00,22.3,9.0,30.32,NE,54,1.0,3.0,56,0.00,,SKC,0.00,VWS V14.01,2013-01-18 12:57:00,
2013-01-18 06:02:00,22.1,9.2,30.32,NE,38,1.0,2.0,57,0.00,,SKC,0.00,VWS V14.01,2013-01-18 13:02:00,
2013-01-18 06:07:00,22.1,9.2,30.33,NE,46,1.0,2.0,57,0.00,,SKC,0.00,VWS V14.01,2013-01-18 13:07:00,
2013-01-18 06:12:00,22.0,9.1,30.33,NE,47,1.0,2.0,57,0.00,,SKC,0.00,VWS V14.01,2013-01-18 13:12:00,
2013-01-18 06:17:00,22.1,9.2,30.33,ENE,61,3.0,3.0,57,0.00,,SKC,0.00,VWS V14.01,2013-01-18 13:17:00,
2013-01-18 06:22:00,22.1,9.2,30.33,NE,42,3.0,3.0,57,0.00,,SKC,0.00,VWS V14.01,2013-01-18 13:22:00,
2013-01-18 06:27:00,22.4,9.5,30.33,NE,51,2.0,3.0,57,0.00,,SKC,0.00,VWS V14.01,2013-01-18 13:27:00,
2013-01-18 06:32:00,22.5,9.2,30.33,NE,44,3.0,3.0,56,0.00,,SKC,0.00,VWS V14.01,2013-01-18 13:32:00,
2013-01-18 06:37:00,22.7,9.8,30.33,NE,41,2.0,5.0,57,0.00,,SKC,0.00,VWS V14.01,2013-01-18 13:37:00,
2013-01-18 06:43:00,22.9,9.6,30.33,ENE,76,2.0,5.0,56,0.00,,SKC,0.00,VWS V14.01,2013-01-18 13:43:00,
2013-01-18 06:48:00,23.1,9.8,30.33,ENE,65,3.0,5.0,56,0.00,,SKC,0.00,VWS V14.01,2013-01-18 13:48:00,
2013-01-18 06:53:00,23.2,9.8,30.34,ENE,58,3.0,5.0,56,0.00,,SKC,0.00,VWS V14.01,2013-01-18 13:53:00,
2013-01-18 06:58:00,23.1,9.8,30.34,ENE,66,3.0,5.0,56,0.00,,SKC,0.00,VWS V14.01,2013-01-18 13:58:00,
2013-01-18 07:03:00,22.9,9.6,30.34,East,96,1.0,3.0,56,0.00,,SKC,0.00,VWS V14.01,2013-01-18 14:03:00,
2013-01-18 07:08:00,22.6,9.3,30.34,East,96,1.0,3.0,56,0.00,,SKC,0.00,VWS V14.01,2013-01-18 14:08:00,
2013-01-18 07:13:00,22.5,9.6,30.34,East,79,3.0,3.0,57,0.00,,SKC,0.00,VWS V14.01,2013-01-18 14:13:00,
2013-01-18 07:18:00,22.3,9.4,30.34,ENE,68,1.0,3.0,57,0.00,,SKC,0.00,VWS V14.01,2013-01-18 14:18:00,
2013-01-18 07:23:00,22.2,9.3,30.34,East,79,1.0,3.0,57,0.00,,SKC,0.00,VWS V14.01,2013-01-18 14:23:00,
2013-01-18 07:28:00,22.0,9.1,30.34,ENE,58,2.0,3.0,57,0.00,,SKC,0.00,VWS V14.01,2013-01-18 14:28:00,
2013-01-18 07:33:00,21.8,8.9,30.34,NE,47,2.0,2.0,57,0.00,,SKC,0.00,VWS V14.01,2013-01-18 14:33:00,
2013-01-18 07:38:00,21.7,8.8,30.34,NE,47,2.0,2.0,57,0.00,,SKC,0.00,VWS V14.01,2013-01-18 14:38:00,
2013-01-18 07:43:00,21.6,9.1,30.34,NE,56,3.0,4.0,58,0.00,,SKC,0.00,VWS V14.01,2013-01-18 14:43:00,
2013-01-18 07:48:00,22.2,9.3,30.35,NE,44,4.0,4.0,57,0.00,,SKC,0.00,VWS V14.01,2013-01-18 14:48:00,
2013-01-18 07:53:00,23.1,9.8,30.35,NE,50,4.0,4.0,56,0.00,,SKC,0.00,VWS V14.01,2013-01-18 14:53:00,
2013-01-18 07:58:00,23.8,10.0,30.35,NE,40,4.0,5.0,55,0.00,,SKC,0.00,VWS V14.01,2013-01-18 14:58:00,
2013-01-18 08:03:00,24.5,10.7,30.35,NNE,27,2.0,4.0,55,0.00,,SKC,0.00,VWS V14.01,2013-01-18 15:03:00,
2013-01-18 08:09:00,25.3,10.6,30.35,ENE,58,2.0,5.0,53,0.00,,SKC,0.00,VWS V14.01,2013-01-18 15:09:00,
2013-01-18 08:14:00,26.0,11.2,30.35,ENE,69,3.0,5.0,53,0.00,,SKC,0.00,VWS V14.01,2013-01-18 15:14:00,
2013-01-18 08:19:00,26.9,11.2,30.36,ENE,65,4.0,5.0,51,0.00,,SKC,0.00,VWS V14.01,2013-01-18 15:19:00,
2013-01-18 08:24:00,27.5,11.3,30.36,ENE,59,3.0,6.0,50,0.00,,SKC,0.00,VWS V14.01,2013-01-18 15:24:00,
2013-01-18 08:29:00,28.4,11.7,30.36,East,100,5.0,7.0,49,0.00,,SKC,0.00,VWS V14.01,2013-01-18 15:29:00,
2013-01-18 08:34:00,29.4,12.6,30.36,ESE,102,5.0,5.0,49,0.00,,SKC,0.00,VWS V14.01,2013-01-18 15:34:00,
2013-01-18 08:39:00,30.7,12.9,30.36,East,89,5.0,6.0,47,0.00,,SKC,0.00,VWS V14.01,2013-01-18 15:39:00,
2013-01-18 08:44:00,31.7,13.3,30.36,East,101,4.0,6.0,46,0.00,,SKC,0.00,VWS V14.01,2013-01-18 15:44:00,
2013-01-18 08:49:00,32.7,13.2,30.36,ESE,112,3.0,6.0,44,0.00,,SKC,0.00,VWS V14.01,2013-01-18 15:49:00,
2013-01-18 08:54:00,33.7,13.6,30.36,ENE,60,3.0,6.0,43,0.00,,SKC,0.00,VWS V14.01,2013-01-18 15:54:00,
2013-01-18 08:59:00,34.8,14.1,30.36,ESE,104,3.0,6.0,42,0.00,,SKC,0.00,VWS V14.01,2013-01-18 15:59:00,
2013-01-18 09:04:00,35.5,14.1,30.36,ESE,110,2.0,4.0,41,0.00,,SKC,0.00,VWS V14.01,2013-01-18 16:04:00,
2013-01-18 09:09:00,36.5,14.5,30.36,ESE,106,6.0,7.0,40,0.00,,SKC,0.00,VWS V14.01,2013-01-18 16:09:00,
2013-01-18 09:14:00,37.2,14.5,30.37,ESE,103,3.0,7.0,39,0.00,,SKC,0.00,VWS V14.01,2013-01-18 16:14:00,
2013-01-18 09:19:00,38.0,14.7,30.37,ESE,108,4.0,7.0,38,0.00,,SKC,0.00,VWS V14.01,2013-01-18 16:19:00,
2013-01-18 09:25:00,38.5,14.5,30.36,East,95,6.0,7.0,37,0.00,,SKC,0.00,VWS V14.01,2013-01-18 16:25:00,
2013-01-18 09:30:00,38.8,14.8,30.37,ESE,114,3.0,7.0,37,0.00,,SKC,0.00,VWS V14.01,2013-01-18 16:30:00,
2013-01-18 09:35:00,39.7,14.9,30.37,ESE,113,5.0,6.0,36,0.00,,SKC,0.00,VWS V14.01,2013-01-18 16:35:00,
2013-01-18 09:40:00,40.9,15.4,30.37,ESE,105,2.0,6.0,35,0.00,,SKC,0.00,VWS V14.01,2013-01-18 16:40:00,
2013-01-18 09:45:00,41.9,14.9,30.37,ENE,60,4.0,6.0,33,0.00,,SKC,0.00,VWS V14.01,2013-01-18 16:45:00,
2013-01-18 09:50:00,42.7,15.6,30.37,East,91,3.0,6.0,33,0.00,,SKC,0.00,VWS V14.01,2013-01-18 16:50:00,
2013-01-18 09:55:00,43.9,16.0,30.37,ESE,105,6.0,7.0,32,0.00,,SKC,0.00,VWS V14.01,2013-01-18 16:55:00,
2013-01-18 10:00:00,44.5,15.8,30.36,ENE,70,4.0,4.0,31,0.00,,SKC,0.00,VWS V14.01,2013-01-18 17:00:00,
2013-01-18 10:05:00,45.3,16.5,30.36,ESE,116,5.0,6.0,31,0.00,,SKC,0.00,VWS V14.01,2013-01-18 17:05:00,
2013-01-18 10:10:00,46.3,16.6,30.36,SE,134,4.0,7.0,30,0.00,,SKC,0.00,VWS V14.01,2013-01-18 17:10:00,
2013-01-18 10:15:00,47.2,16.6,30.36,ENE,67,5.0,7.0,29,0.00,,SKC,0.00,VWS V14.01,2013-01-18 17:15:00,
2013-01-18 10:21:00,48.2,16.6,30.36,East,96,3.0,7.0,28,0.00,,SKC,0.00,VWS V14.01,2013-01-18 17:21:00,
2013-01-18 10:26:00,49.0,16.5,30.36,East,94,2.0,7.0,27,0.00,,SKC,0.00,VWS V14.01,2013-01-18 17:26:00,
2013-01-18 10:31:00,50.1,16.6,30.36,SE,124,2.0,5.0,26,0.00,,SKC,0.00,VWS V14.01,2013-01-18 17:31:00,
2013-01-18 10:36:00,50.9,17.2,30.35,ESE,116,4.0,5.0,26,0.00,,SKC,0.00,VWS V14.01,2013-01-18 17:36:00,
2013-01-18 10:41:00,51.8,17.1,30.35,ESE,114,4.0,5.0,25,0.00,,SKC,0.00,VWS V14.01,2013-01-18 17:41:00,
2013-01-18 10:46:00,52.7,16.9,30.35,ESE,104,4.0,5.0,24,0.00,,SKC,0.00,VWS V14.01,2013-01-18 17:46:00,
2013-01-18 10:51:00,53.3,17.5,30.34,ESE,107,2.0,6.0,24,0.00,,SKC,0.00,VWS V14.01,2013-01-18 17:51:00,
2013-01-18 10:56:00,53.6,17.7,30.34,SE,131,3.0,6.0,24,0.00,,SKC,0.00,VWS V14.01,2013-01-18 17:56:00,
2013-01-18 11:01:00,54.3,17.3,30.34,ESE,108,1.0,4.0,23,0.00,,SKC,0.00,VWS V14.01,2013-01-18 18:01:00,
2013-01-18 11:06:00,55.0,17.9,30.33,SSE,156,1.0,4.0,23,0.00,,SKC,0.00,VWS V14.01,2013-01-18 18:06:00,
2013-01-18 11:11:00,56.2,17.9,30.33,SSE,147,2.0,4.0,22,0.00,,SKC,0.00,VWS V14.01,2013-01-18 18:11:00,
2013-01-18 11:16:00,56.6,18.2,30.33,SE,124,1.0,4.0,22,0.00,,SKC,0.00,VWS V14.01,2013-01-18 18:16:00,
2013-01-18 11:22:00,57.5,17.9,30.32,East,82,0.0,4.0,21,0.00,,SKC,0.00,VWS V14.01,2013-01-18 18:22:00,
2013-01-18 11:27:00,57.8,18.1,30.32,SE,128,2.0,4.0,21,0.00,,SKC,0.00,VWS V14.01,2013-01-18 18:27:00,
2013-01-18 11:32:00,57.6,18.0,30.31,South,176,2.0,4.0,21,0.00,,SKC,0.00,VWS V14.01,2013-01-18 18:32:00,
2013-01-18 11:37:00,57.5,17.9,30.31,North,350,3.0,4.0,21,0.00,,SKC,0.00,VWS V14.01,2013-01-18 18:37:00,
2013-01-18 11:42:00,57.9,18.2,30.31,West,261,2.0,4.0,21,0.00,,SKC,0.00,VWS V14.01,2013-01-18 18:42:00,
2013-01-18 11:47:00,59.1,19.2,30.31,ENE,63,3.0,6.0,21,0.00,,SKC,0.00,VWS V14.01,2013-01-18 18:47:00,
2013-01-18 11:52:00,59.0,18.0,30.30,ENE,58,1.0,6.0,20,0.00,,SKC,0.00,VWS V14.01,2013-01-18 18:52:00,
2013-01-18 11:57:00,59.2,18.2,30.30,East,96,4.0,6.0,20,0.00,,SKC,0.00,VWS V14.01,2013-01-18 18:57:00,
2013-01-18 12:02:00,59.5,18.4,30.29,NE,56,5.0,5.0,20,0.00,,SKC,0.00,VWS V14.01,2013-01-18 19:02:00,
2013-01-18 12:07:00,59.9,18.8,30.28,ENE,58,2.0,6.0,20,0.00,,SKC,0.00,VWS V14.01,2013-01-18 19:07:00,
2013-01-18 12:12:00,60.4,18.0,30.28,South,172,3.0,6.0,19,0.00,,SKC,0.00,VWS V14.01,2013-01-18 19:12:00,
2013-01-18 12:17:00,60.8,18.3,30.27,ENE,63,3.0,6.0,19,0.00,,SKC,0.00,VWS V14.01,2013-01-18 19:17:00,
2013-01-18 12:22:00,60.7,18.2,30.27,East,91,6.0,6.0,19,0.00,,SKC,0.00,VWS V14.01,2013-01-18 19:22:00,
2013-01-18 12:28:00,60.9,18.4,30.26,SSE,157,2.0,6.0,19,0.00,,SKC,0.00,VWS V14.01,2013-01-18 19:28:00,
2013-01-18 12:33:00,61.0,18.5,30.26,ENE,66,1.0,7.0,19,0.00,,SKC,0.00,VWS V14.01,2013-01-18 19:33:00,
2013-01-18 12:38:00,61.6,17.7,30.25,NE,37,5.0,7.0,18,0.00,,SKC,0.00,VWS V14.01,2013-01-18 19:38:00,
2013-01-18 12:43:00,61.5,18.9,30.25,ESE,113,2.0,7.0,19,0.00,,SKC,0.00,VWS V14.01,2013-01-18 19:43:00,
2013-01-18 12:48:00,62.3,18.3,30.25,ESE,123,3.0,7.0,18,0.00,,SKC,0.00,VWS V14.01,2013-01-18 19:48:00,
2013-01-18 12:53:00,62.9,17.5,30.24,SE,134,1.0,7.0,17,0.00,,SKC,0.00,VWS V14.01,2013-01-18 19:53:00,
2013-01-18 12:58:00,62.5,17.1,30.24,East,96,3.0,8.0,17,0.00,,SKC,0.00,VWS V14.01,2013-01-18 19:58:00,
2013-01-18 13:03:00,62.6,17.2,30.23,NE,40,4.0,4.0,17,0.00,,SKC,0.00,VWS V14.01,2013-01-18 20:03:00,
2013-01-18 13:08:00,62.5,17.1,30.23,NE,48,0.0,4.0,17,0.00,,SKC,0.00,VWS V14.01,2013-01-18 20:08:00,
2013-01-18 13:13:00,63.2,17.7,30.23,SE,139,2.0,7.0,17,0.00,,SKC,0.00,VWS V14.01,2013-01-18 20:13:00,
2013-01-18 13:18:00,63.7,18.1,30.23,ESE,115,1.0,7.0,17,0.00,,SKC,0.00,VWS V14.01,2013-01-18 20:18:00,
2013-01-18 13:23:00,64.5,17.3,30.22,SSE,153,0.0,7.0,16,0.00,,SKC,0.00,VWS V14.01,2013-01-18 20:23:00,
2013-01-18 13:28:00,64.9,17.7,30.22,NE,43,2.0,7.0,16,0.00,,SKC,0.00,VWS V14.01,2013-01-18 20:28:00,
2013-01-18 13:33:00,64.2,17.1,30.22,WNW,291,1.0,3.0,16,0.00,,SKC,0.00,VWS V14.01,2013-01-18 20:33:00,
2013-01-18 13:38:00,64.4,15.8,30.21,SSW,200,1.0,6.0,15,0.00,,SKC,0.00,VWS V14.01,2013-01-18 20:38:00,
2013-01-18 13:44:00,65.2,16.4,30.21,SSW,193,1.0,6.0,15,0.00,,SKC,0.00,VWS V14.01,2013-01-18 20:44:00,
2013-01-18 13:49:00,65.6,16.7,30.21,WSW,245,2.0,6.0,15,0.00,,SKC,0.00,VWS V14.01,2013-01-18 20:49:00,
2013-01-18 13:54:00,65.8,16.9,30.21,SE,127,3.0,6.0,15,0.00,,SKC,0.00,VWS V14.01,2013-01-18 20:54:00,
2013-01-18 13:59:00,65.4,15.0,30.21,ENE,66,3.0,6.0,14,0.00,,SKC,0.00,VWS V14.01,2013-01-18 20:59:00,
2013-01-18 14:04:00,65.1,16.3,30.21,NW,325,2.0,4.0,15,0.00,,SKC,0.00,VWS V14.01,2013-01-18 21:04:00,
2013-01-18 14:09:00,65.0,14.7,30.20,West,275,1.0,4.0,14,0.00,,SKC,0.00,VWS V14.01,2013-01-18 21:09:00,
2013-01-18 14:14:00,65.3,14.9,30.20,SW,226,0.0,4.0,14,0.00,,SKC,0.00,VWS V14.01,2013-01-18 21:14:00,
2013-01-18 14:19:00,66.2,15.6,30.20,SE,141,1.0,4.0,14,0.00,,SKC,0.00,VWS V14.01,2013-01-18 21:19:00,
2013-01-18 14:24:00,66.5,14.2,30.20,East,101,3.0,5.0,13,0.00,,SKC,0.00,VWS V14.01,2013-01-18 21:24:00,
2013-01-18 14:29:00,66.3,14.0,30.20,NE,46,0.0,5.0,13,0.00,,SKC,0.00,VWS V14.01,2013-01-18 21:29:00,
2013-01-18 14:34:00,66.8,14.4,30.19,South,186,1.0,3.0,13,0.00,,SKC,0.00,VWS V14.01,2013-01-18 21:34:00,
2013-01-18 14:39:00,67.4,14.9,30.19,SSW,208,0.0,3.0,13,0.00,,SKC,0.00,VWS V14.01,2013-01-18 21:39:00,
2013-01-18 14:44:00,67.4,14.9,30.19,NNE,26,2.0,3.0,13,0.00,,SKC,0.00,VWS V14.01,2013-01-18 21:44:00,
2013-01-18 14:49:00,67.3,13.0,30.19,ESE,121,1.0,4.0,12,0.00,,SKC,0.00,VWS V14.01,2013-01-18 21:49:00,
2013-01-18 14:54:00,67.7,13.3,30.19,SSE,167,0.0,4.0,12,0.00,,SKC,0.00,VWS V14.01,2013-01-18 21:54:00,
2013-01-18 14:59:00,67.8,13.4,30.19,ESE,118,2.0,4.0,12,0.00,,SKC,0.00,VWS V14.01,2013-01-18 21:59:00,
2013-01-18 15:05:00,67.5,11.2,30.19,ESE,118,1.0,3.0,11,0.00,,SKC,0.00,VWS V14.01,2013-01-18 22:05:00,
2013-01-18 15:10:00,67.1,10.9,30.18,SE,138,0.0,4.0,11,0.00,,SKC,0.00,VWS V14.01,2013-01-18 22:10:00,
2013-01-18 15:15:00,67.1,10.9,30.18,East,84,2.0,4.0,11,0.00,,SKC,0.00,VWS V14.01,2013-01-18 22:15:00,
2013-01-18 15:20:00,67.2,10.9,30.18,ENE,70,0.0,4.0,11,0.00,,SKC,0.00,VWS V14.01,2013-01-18 22:20:00,
2013-01-18 15:25:00,67.7,11.3,30.18,SSE,166,2.0,4.0,11,0.00,,SKC,0.00,VWS V14.01,2013-01-18 22:25:00,
2013-01-18 15:30:00,68.4,9.7,30.18,SSW,207,1.0,4.0,10,0.00,,SKC,0.00,VWS V14.01,2013-01-18 22:30:00,
2013-01-18 15:35:00,68.6,9.9,30.17,SSW,194,3.0,4.0,10,0.00,,SKC,0.00,VWS V14.01,2013-01-18 22:35:00,
2013-01-18 15:40:00,68.9,10.1,30.17,South,174,1.0,4.0,10,0.00,,SKC,0.00,VWS V14.01,2013-01-18 22:40:00,
2013-01-18 15:45:00,68.9,10.1,30.17,SSE,152,2.0,5.0,10,0.00,,SKC,0.00,VWS V14.01,2013-01-18 22:45:00,
2013-01-18 15:50:00,68.7,12.1,30.17,NNE,13,2.0,5.0,11,0.00,,SKC,0.00,VWS V14.01,2013-01-18 22:50:00,
2013-01-18 15:55:00,68.3,15.6,30.17,SW,228,3.0,5.0,13,0.00,,SKC,0.00,VWS V14.01,2013-01-18 22:55:00,
2013-01-18 16:00:00,67.7,15.1,30.17,West,280,2.0,2.0,13,0.00,,SKC,0.00,VWS V14.01,2013-01-18 23:00:00,
2013-01-18 16:05:00,67.6,15.0,30.17,North,4,4.0,4.0,13,0.00,,SKC,0.00,VWS V14.01,2013-01-18 23:05:00,
2013-01-18 16:10:00,67.2,14.7,30.17,WNW,300,2.0,5.0,13,0.00,,SKC,0.00,VWS V14.01,2013-01-18 23:10:00,
2013-01-18 16:15:00,67.1,14.6,30.17,NNE,30,3.0,6.0,13,0.00,,SKC,0.00,VWS V14.01,2013-01-18 23:15:00,
2013-01-18 16:20:00,66.7,14.3,30.17,NNE,33,5.0,6.0,13,0.00,,SKC,0.00,VWS V14.01,2013-01-18 23:20:00,
2013-01-18 16:26:00,66.4,14.1,30.17,NW,311,3.0,6.0,13,0.00,,SKC,0.00,VWS V14.01,2013-01-18 23:26:00,
2013-01-18 16:31:00,66.3,15.7,30.17,NNE,23,2.0,4.0,14,0.00,,SKC,0.00,VWS V14.01,2013-01-18 23:31:00,
2013-01-18 16:36:00,66.2,15.6,30.17,NNE,30,5.0,7.0,14,0.00,,SKC,0.00,VWS V14.01,2013-01-18 23:36:00,
2013-01-18 16:41:00,65.7,15.2,30.17,North,4,5.0,7.0,14,0.00,,SKC,0.00,VWS V14.01,2013-01-18 23:41:00,
2013-01-18 16:46:00,65.4,15.0,30.17,NNE,13,2.0,7.0,14,0.00,,SKC,0.00,VWS V14.01,2013-01-18 23:46:00,
2013-01-18 16:51:00,65.3,14.9,30.17,NNE,20,6.0,8.0,14,0.00,,SKC,0.00,VWS V14.01,2013-01-18 23:51:00,
2013-01-18 16:56:00,65.0,14.7,30.17,NNE,32,6.0,8.0,14,0.00,,SKC,0.00,VWS V14.01,2013-01-18 23:56:00,
2013-01-18 17:01:00,64.4,15.8,30.17,NNE,15,3.0,5.0,15,0.00,,SKC,0.00,VWS V14.01,2013-01-19 00:01:00,
2013-01-18 17:06:00,63.8,15.3,30.17,North,11,2.0,5.0,15,0.00,,SKC,0.00,VWS V14.01,2013-01-19 00:06:00,
2013-01-18 17:11:00,63.4,15.0,30.17,North,5,2.0,6.0,15,0.00,,SKC,0.00,VWS V14.01,2013-01-19 00:11:00,
2013-01-18 17:16:00,62.9,16.0,30.18,NNE,32,4.0,7.0,16,0.00,,SKC,0.00,VWS V14.01,2013-01-19 00:16:00,
2013-01-18 17:21:00,62.3,15.6,30.18,NNW,344,4.0,8.0,16,0.00,,SKC,0.00,VWS V14.01,2013-01-19 00:21:00,
2013-01-18 17:26:00,61.5,16.3,30.18,NE,39,5.0,8.0,17,0.00,,SKC,0.00,VWS V14.01,2013-01-19 00:26:00,
2013-01-18 17:31:00,60.9,15.8,30.18,NNE,30,5.0,7.0,17,0.00,,SKC,0.00,VWS V14.01,2013-01-19 00:31:00,
2013-01-18 17:36:00,60.3,16.6,30.18,NE,35,3.0,7.0,18,0.00,,SKC,0.00,VWS V14.01,2013-01-19 00:36:00,
2013-01-18 17:42:00,59.7,16.1,30.18,North,356,6.0,7.0,18,0.00,,SKC,0.00,VWS V14.01,2013-01-19 00:42:00,
2013-01-18 17:47:00,59.3,15.8,30.18,NNE,26,5.0,9.0,18,0.00,,SKC,0.00,VWS V14.01,2013-01-19 00:47:00,
2013-01-18 17:52:00,58.8,16.7,30.18,NNE,25,5.0,9.0,19,0.00,,SKC,0.00,VWS V14.01,2013-01-19 00:52:00,
2013-01-18 17:57:00,58.5,16.4,30.18,NNE,29,4.0,9.0,19,0.00,,SKC,0.00,VWS V14.01,2013-01-19 00:57:00,
2013-01-18 18:02:00,58.2,16.2,30.18,NNE,20,4.0,7.0,19,0.00,,SKC,0.00,VWS V14.01,2013-01-19 01:02:00,
2013-01-18 18:07:00,57.7,15.8,30.19,NNE,25,4.0,7.0,19,0.00,,SKC,0.00,VWS V14.01,2013-01-19 01:07:00,
2013-01-18 18:12:00,57.6,15.7,30.19,ENE,60,3.0,7.0,19,0.00,,SKC,0.00,VWS V14.01,2013-01-19 01:12:00,
2013-01-18 18:17:00,57.0,16.4,30.19,NE,44,3.0,7.0,20,0.00,,SKC,0.00,VWS V14.01,2013-01-19 01:17:00,
2013-01-18 18:22:00,56.5,15.9,30.19,NNE,28,4.0,7.0,20,0.00,,SKC,0.00,VWS V14.01,2013-01-19 01:22:00,
2013-01-18 18:27:00,56.0,15.5,30.19,NNE,32,1.0,7.0,20,0.00,,SKC,0.00,VWS V14.01,2013-01-19 01:27:00,
2013-01-18 18:33:00,55.3,16.0,30.20,NE,53,2.0,2.0,21,0.00,,SKC,0.00,VWS V14.01,2013-01-19 01:33:00,
2013-01-18 18:38:00,54.8,15.6,30.20,NE,53,0.0,2.0,21,0.00,,SKC,0.00,VWS V14.01,2013-01-19 01:38:00,
2013-01-18 18:43:00,53.6,15.7,30.20,NE,53,0.0,2.0,22,0.00,,SKC,0.00,VWS V14.01,2013-01-19 01:43:00,
2013-01-18 18:48:00,52.2,14.5,30.20,NE,53,0.0,2.0,22,0.00,,SKC,0.00,VWS V14.01,2013-01-19 01:48:00,
2013-01-18 18:53:00,50.9,14.4,30.21,NE,52,0.0,2.0,23,0.00,,SKC,0.00,VWS V14.01,2013-01-19 01:53:00,
2013-01-18 18:58:00,50.0,15.6,30.21,NE,53,0.0,2.0,25,0.00,,SKC,0.00,VWS V14.01,2013-01-19 01:58:00,
2013-01-18 19:03:00,49.4,15.1,30.21,NE,54,1.0,1.0,25,0.00,,SKC,0.00,VWS V14.01,2013-01-19 02:03:00,
2013-01-18 19:08:00,49.9,16.4,30.21,SW,226,0.0,2.0,26,0.00,,SKC,0.00,VWS V14.01,2013-01-19 02:08:00,
2013-01-18 19:13:00,49.5,16.0,30.21,North,353,1.0,2.0,26,0.00,,SKC,0.00,VWS V14.01,2013-01-19 02:13:00,
2013-01-18 19:18:00,50.0,17.4,30.22,NW,309,2.0,3.0,27,0.00,,SKC,0.00,VWS V14.01,2013-01-19 02:18:00,
2013-01-18 19:23:00,50.6,17.9,30.22,NNE,13,2.0,4.0,27,0.00,,SKC,0.00,VWS V14.01,2013-01-19 02:23:00,
2013-01-18 19:28:00,51.3,17.6,30.22,NNE,15,1.0,4.0,26,0.00,,SKC,0.00,VWS V14.01,2013-01-19 02:28:00,
2013-01-18 19:34:00,50.0,16.5,30.22,NNE,30,0.0,0.0,26,0.00,,SKC,0.00,VWS V14.01,2013-01-19 02:34:00,
2013-01-18 19:39:00,48.6,16.1,30.22,NNE,31,0.0,0.0,27,0.00,,SKC,0.00,VWS V14.01,2013-01-19 02:39:00,
2013-01-18 19:44:00,47.4,15.9,30.22,NNE,31,0.0,0.0,28,0.00,,SKC,0.00,VWS V14.01,2013-01-19 02:44:00,
2013-01-18 19:49:00,46.5,16.8,30.22,NNE,32,0.0,0.0,30,0.00,,SKC,0.00,VWS V14.01,2013-01-19 02:49:00,
2013-01-18 19:54:00,45.9,17.0,30.22,NNE,32,1.0,1.0,31,0.00,,SKC,0.00,VWS V14.01,2013-01-19 02:54:00,
2013-01-18 19:59:00,44.6,16.6,30.23,NNE,32,0.0,1.0,32,0.00,,SKC,0.00,VWS V14.01,2013-01-19 02:59:00,
2013-01-18 20:04:00,44.1,16.1,30.23,NNE,32,0.0,1.0,32,0.00,,SKC,0.00,VWS V14.01,2013-01-19 03:04:00,
2013-01-18 20:09:00,43.1,15.3,30.23,NNE,32,1.0,1.0,32,0.00,,SKC,0.00,VWS V14.01,2013-01-19 03:09:00,
2013-01-18 20:14:00,42.2,15.2,30.23,NNE,32,0.0,1.0,33,0.00,,SKC,0.00,VWS V14.01,2013-01-19 03:14:00,
2013-01-18 20:19:00,41.4,15.8,30.23,NNE,32,0.0,1.0,35,0.00,,SKC,0.00,VWS V14.01,2013-01-19 03:19:00,
2013-01-18 20:24:00,40.5,16.3,30.23,NNE,32,1.0,1.0,37,0.00,,SKC,0.00,VWS V14.01,2013-01-19 03:24:00,
2013-01-18 20:29:00,39.9,15.8,30.23,NNE,32,0.0,1.0,37,0.00,,SKC,0.00,VWS V14.01,2013-01-19 03:29:00,
2013-01-18 20:35:00,39.3,15.8,30.23,NNE,32,0.0,1.0,38,0.00,,SKC,0.00,VWS V14.01,2013-01-19 03:35:00,
2013-01-18 20:40:00,39.5,15.4,30.23,NNE,31,0.0,1.0,37,0.00,,SKC,0.00,VWS V14.01,2013-01-19 03:40:00,
2013-01-18 20:45:00,39.0,14.9,30.24,NNE,32,0.0,1.0,37,0.00,,SKC,0.00,VWS V14.01,2013-01-19 03:45:00,
2013-01-18 20:50:00,38.6,15.2,30.23,NNE,32,0.0,1.0,38,0.00,,SKC,0.00,VWS V14.01,2013-01-19 03:50:00,
2013-01-18 20:55:00,38.5,15.1,30.24,NNE,32,1.0,1.0,38,0.00,,SKC,0.00,VWS V14.01,2013-01-19 03:55:00,
2013-01-18 21:00:00,37.9,14.6,30.24,NNE,32,0.0,0.0,38,0.00,,SKC,0.00,VWS V14.01,2013-01-19 04:00:00,
2013-01-18 21:05:00,37.1,14.4,30.24,NNE,32,0.0,0.0,39,0.00,,SKC,0.00,VWS V14.01,2013-01-19 04:05:00,
2013-01-18 21:10:00,36.5,14.5,30.24,NNE,32,1.0,1.0,40,0.00,,SKC,0.00,VWS V14.01,2013-01-19 04:10:00,
2013-01-18 21:16:00,36.9,14.9,30.24,NNE,32,0.0,1.0,40,0.00,,SKC,0.00,VWS V14.01,2013-01-19 04:16:00,
2013-01-18 21:21:00,36.7,14.7,30.24,NNE,31,1.0,2.0,40,0.00,,SKC,0.00,VWS V14.01,2013-01-19 04:21:00,
2013-01-18 21:26:00,36.7,14.7,30.24,NNE,31,0.0,2.0,40,0.00,,SKC,0.00,VWS V14.01,2013-01-19 04:26:00,
2013-01-18 21:32:00,36.0,14.6,30.24,NNE,32,1.0,1.0,41,0.00,,SKC,0.00,VWS V14.01,2013-01-19 04:32:00,
2013-01-18 21:37:00,36.2,13.6,30.24,NE,42,0.0,1.0,39,0.00,,SKC,0.00,VWS V14.01,2013-01-19 04:37:00,
2013-01-18 21:42:00,37.2,12.7,30.24,ENE,60,2.0,2.0,36,0.00,,SKC,0.00,VWS V14.01,2013-01-19 04:42:00,
2013-01-18 21:47:00,37.9,12.1,30.24,ENE,64,1.0,3.0,34,0.00,,SKC,0.00,VWS V14.01,2013-01-19 04:47:00,
2013-01-18 21:52:00,38.1,11.6,30.25,East,95,0.0,3.0,33,0.00,,SKC,0.00,VWS V14.01,2013-01-19 04:52:00,
2013-01-18 21:57:00,37.9,11.4,30.25,East,81,1.0,3.0,33,0.00,,SKC,0.00,VWS V14.01,2013-01-19 04:57:00,
2013-01-18 22:02:00,37.7,11.9,30.25,East,96,1.0,2.0,34,0.00,,SKC,0.00,VWS V14.01,2013-01-19 05:02:00,
2013-01-18 22:04:00,37.5,11.7,30.25,East,79,1.0,2.0,34,0.00,,SKC,0.00,VWS V14.01,2013-01-19 05:04:00,
2013-01-18 22:07:00,37.4,11.6,30.25,ENE,68,1.0,3.0,34,0.00,,SKC,0.00,VWS V14.01,2013-01-19 05:07:00,
2013-01-18 22:11:00,37.3,11.5,30.25,ENE,77,1.0,3.0,34,0.00,,SKC,0.00,VWS V14.01,2013-01-19 05:11:00,
2013-01-18 22:16:00,37.1,11.3,30.25,ENE,75,3.0,3.0,34,0.00,,SKC,0.00,VWS V14.01,2013-01-19 05:16:00,
2013-01-18 22:21:00,37.3,11.5,30.25,ENE,58,3.0,3.0,34,0.00,,SKC,0.00,VWS V14.01,2013-01-19 05:21:00,
2013-01-18 22:26:00,37.4,11.6,30.25,East,84,1.0,3.0,34,0.00,,SKC,0.00,VWS V14.01,2013-01-19 05:26:00,
2013-01-18 22:31:00,37.1,11.3,30.25,East,86,2.0,2.0,34,0.00,,SKC,0.00,VWS V14.01,2013-01-19 05:31:00,
2013-01-18 22:36:00,36.9,11.8,30.25,East,100,1.0,2.0,35,0.00,,SKC,0.00,VWS V14.01,2013-01-19 05:36:00,
2013-01-18 22:41:00,36.6,11.6,30.25,ENE,77,2.0,3.0,35,0.00,,SKC,0.00,VWS V14.01,2013-01-19 05:41:00,
2013-01-18 22:46:00,35.9,11.6,30.25,NE,53,1.0,3.0,36,0.00,,SKC,0.00,VWS V14.01,2013-01-19 05:46:00,
2013-01-18 22:52:00,35.6,11.9,30.25,East,83,1.0,3.0,37,0.00,,SKC,0.00,VWS V14.01,2013-01-19 05:52:00,
2013-01-18 22:57:00,35.5,11.8,30.25,ENE,75,1.0,3.0,37,0.00,,SKC,0.00,VWS V14.01,2013-01-19 05:57:00,
2013-01-18 23:02:00,35.2,11.6,30.25,East,79,1.0,2.0,37,0.00,,SKC,0.00,VWS V14.01,2013-01-19 06:02:00,
2013-01-18 23:07:00,34.9,11.3,30.25,East,82,0.0,2.0,37,0.00,,SKC,0.00,VWS V14.01,2013-01-19 06:07:00,
2013-01-18 23:12:00,34.4,11.4,30.25,ENE,77,1.0,2.0,38,0.00,,SKC,0.00,VWS V14.01,2013-01-19 06:12:00,
2013-01-18 23:17:00,33.9,11.0,30.25,East,86,1.0,3.0,38,0.00,,SKC,0.00,VWS V14.01,2013-01-19 06:17:00,
2013-01-18 23:22:00,33.4,11.1,30.25,ENE,61,1.0,3.0,39,0.00,,SKC,0.00,VWS V14.01,2013-01-19 06:22:00,
2013-01-18 23:27:00,32.9,11.2,30.25,ENE,71,1.0,3.0,40,0.00,,SKC,0.00,VWS V14.01,2013-01-19 06:27:00,
2013-01-18 23:33:00,32.3,10.7,30.25,NE,54,1.0,1.0,40,0.00,,SKC,0.00,VWS V14.01,2013-01-19 06:33:00,
2013-01-18 23:38:00,31.8,10.8,30.25,ENE,68,0.0,1.0,41,0.00,,SKC,0.00,VWS V14.01,2013-01-19 06:38:00,
2013-01-18 23:43:00,31.6,11.2,30.25,ENE,60,1.0,1.0,42,0.00,,SKC,0.00,VWS V14.01,2013-01-19 06:43:00,
2013-01-18 23:48:00,31.2,10.8,30.25,ENE,57,1.0,2.0,42,0.00,,SKC,0.00,VWS V14.01,2013-01-19 06:48:00,
2013-01-18 23:53:00,31.0,11.1,30.25,NE,41,1.0,2.0,43,0.00,,SKC,0.00,VWS V14.01,2013-01-19 06:53:00,
2013-01-18 23:58:00,30.7,11.4,30.25,NE,38,1.0,2.0,44,0.00,,SKC,0.00,VWS V14.01,2013-01-19 06:58:00,